Regional Weather Roundup
Issued by NWS

Home | Current Version | Previous Version | Text Only | Print | Product List | Glossary Off
Versions: 1 2 3 4 5 6 7 8 9 10 11 12 13 14 15 16 17 18 19 20 21 22 23 24 25 26 27 28 29 30 31 32 33 34 35 36 37 38 39 40 41 42 43 44 45 46 47 48 49 50

000
ASUS43 KLOT 210200
RWRIL

ILLINOIS REGIONAL WEATHER ROUNDUP
NATIONAL WEATHER SERVICE CHICAGO/ROMEOVILLE IL
900 PM CDT SAT SEP 20 2014

NOTE: "FAIR" INDICATES FEW OR NO CLOUDS BELOW 12,000 FEET WITH NO
SIGNIFICANT WEATHER AND/OR OBSTRUCTIONS TO VISIBILITY.

* THESE STATIONS ARE NOT UNDER NWS QUALITY CONTROL. THEY ALSO MAY NOT
  REPORT WEATHER SUCH AS PRECIPITATION OR FOG.

ILZ001-002-007-009-015-016-024-210300-
NORTHWEST ILLINOIS

CITY           SKY/WX    TMP DP  RH WIND       PRES   REMARKS
MOLINE         CLEAR     71  66  84 SW9       29.80S
STERLING*      CLOUDY    70  63  78 W13G20    29.79F
$$

ILZ003-004-008-010-011-017-018-210300-
NORTH CENTRAL ILLINOIS

CITY           SKY/WX    TMP DP  RH WIND       PRES   REMARKS
ROCKFORD       MOCLDY    68  64  87 SW6       29.80R
FREEPORT*      CLEAR     68  65  92 SW10      29.80S
ROCHELLE*      MOCLDY    66  64  91 SW5       29.80S
$$

ILZ005-006-012>014-019>023-210300-
NORTHEAST ILLINOIS

CITY           SKY/WX    TMP DP  RH WIND       PRES   REMARKS
CHICAGO-OHARE  PTCLDY    69  62  78 SW5       29.79F
CHICAGO-MIDWAY PTCLDY    71  66  84 SW9       29.80S
AURORA         CLEAR     68  65  90 S5        29.81S FOG
LANSING*       PTCLDY    65  63  94 S6        29.81F
WAUKEGAN       CLEAR     66  61  84 SW9       29.77S
DUPAGE AIRPORT CLEAR     68  64  87 SW8       29.80S
WHEELING       PTCLDY    68  63  84 S5        29.80F
NORTHERLY ISL    N/A     71  63  75 SW2         N/A
$$

LMZ740>746-210300-
SOUTHERN LAKE MICHIGAN

STATION/POSITION SKY/WX   TEMP    WIND        PRES    VSBY  WAVE
                          AIR SEA DIR/SP/G                  HT/PER
                          (F)     (DEG/KT/KT) (MB)    (MI)  (FT/S)
SOUTHERN BUOY              65 63  210/ 12/ 14 1008.0R
WAUKEGAN HARBOR            70     220/ 10/ 12   N/A
HARRISON CRIB              72     220/ 12/ 14   N/A
BURNHAM HARBOR             71     190/  2/  7   N/A
CALUMET HARBOR             71     210/  5/  6 1008.3R
MICHIGAN CITY              68     170/ 13/ 17   N/A
MICHIGAN CITY 6N           68 65  210/ 10/ 12   N/A           1/ 2
ST. JOSEPH                 67 65  190/ 12/ 14   N/A           2/ 3
$$

ILZ025>027-034>036-040-047-049-050-058-095>099-210300-
WEST-CENTRAL ILLINOIS

CITY           SKY/WX    TMP DP  RH WIND       PRES   REMARKS
QUINCY         PTCLDY    72  69  90 SW7       29.87F
GALESBURG*     CLEAR     72  67  85 SW12      29.83F
MACOMB*        PTCLDY    71  68  90 W6        29.87S
$$

ILZ028>032-037-038-041>044-048-051>054-059>061-210300-
CENTRAL ILLINOIS

CITY           SKY/WX    TMP DP  RH WIND       PRES   REMARKS
DECATUR        CLEAR     71  69  93 S8        29.87F
PEORIA         PTCLDY    74  67  78 W7        29.83F
SPRINGFIELD    CLEAR     74  69  85 SW8       29.86F
TAYLORVILLE    NOT AVBL
$$

ILZ033-039-045-046-055>057-062-063-210300-
EAST-CENTRAL ILLINOIS

CITY           SKY/WX    TMP DP  RH WIND       PRES   REMARKS
CHAMPAIGN      CLEAR     71  69  93 S7        29.86F FOG
MATTOON        PTCLDY    73  68  84 S8        29.90F
$$

ILZ079-100>102-210300-
SOUTHWEST ILLINOIS

CITY           SKY/WX    TMP DP  RH WIND       PRES   REMARKS
BELLEVILLE     CLEAR     72  69  90 S2        29.92R
CAHOKIA*       CLEAR     74  66  76 S3        29.92R
SPARTA*        CLEAR     76  68  77 S6        29.96R
$$

ILZ064>066-069>071-074>076-080>082-084>086-088>090-092>094-210300-
SOUTH-CENTRAL ILLINOIS

CITY           SKY/WX    TMP DP  RH WIND       PRES   REMARKS
CARBONDALE     CLEAR     70  66  87 S6        29.96R
MT. VERNON     CLEAR     72  64  78 SW5       29.96R
$$

ILZ067-068-072-073-078-083-087-091-210300-
SOUTHEAST ILLINOIS

CITY           SKY/WX    TMP DP  RH WIND       PRES   REMARKS
LAWRENCEVILLE  MOCLDY    72  67  84 S7        29.94S
ROBINSON*      MOCLDY    73  69  86 S6        29.94S
$$

ABBREVIATIONS USED IN REMARKS
   TC - TEMPERATURE IN CELSIUS
  WCI - WIND CHILL INDEX
   HX - HEAT INDEX
  VSB - VISIBILITY
$$




USA.gov is the U.S. government's official web portal to all federal, state and local government web resources and services.